Overview Statistics Trail Chart Weather Telemetry Raw packets
 

This is the latest recevied weather packets stored in our database for station/object VO2AGO. If no packets are shown the sender has not sent any weather packets the latest 10 day(s).

<< 69 70 71 72 73 74 75 >>
Time Temp. Humidity Pressure Rain* Wind** Luminosity Snow
1777339702 5.56° C 84% 102.6 hPa 0 mm 0 m/s 0 W/m² -
1777339253 5.56° C 85% 102.6 hPa 0 mm 0 m/s 0 W/m² -
1777338802 5° C 83% 102.6 hPa 0 mm 0 m/s 0 W/m² -
1777338352 5.56° C 79% 102.6 hPa 0 mm 0 m/s 0 W/m² -
1777337902 5.56° C 77% 102.6 hPa 0 mm 0 m/s 0 W/m² -
1777337453 5.56° C 75% 102.6 hPa 0 mm 0 m/s 0 W/m² -
1777337002 6.11° C 75% 102.6 hPa 0 mm 0 m/s 0 W/m² -
1777336553 6.11° C 72% 102.6 hPa 0 mm 0 m/s 0 W/m² -
1777336103 6.11° C 73% 102.6 hPa 0 mm 0 m/s 0 W/m² -
1777335653 6.11° C 72% 102.6 hPa 0 mm 0 m/s 0 W/m² -
1777335202 6.11° C 69% 102.6 hPa 0 mm 0 m/s 0 W/m² -
1777334752 6.67° C 70% 102.6 hPa 0 mm 0 m/s 1 W/m² -
1777334302 6.67° C 69% 102.6 hPa 0 mm 0 m/s 2 W/m² -
1777333852 6.67° C 69% 102.6 hPa 0 mm 0 m/s 5 W/m² -
1777333402 7.22° C 62% 102.5 hPa 0 mm 0 m/s 9 W/m² -
1777332952 7.22° C 59% 102.6 hPa 0 mm 0 m/s 16 W/m² -
1777332502 7.22° C 58% 102.6 hPa 0 mm 0 m/s 28 W/m² -
1777332053 7.78° C 55% 102.5 hPa 0 mm 0 m/s 47 W/m² -
1777331602 8.89° C 52% 102.5 hPa 0 mm 0 m/s 69 W/m² -
1777331153 9.44° C 50% 102.5 hPa 0 mm 0 m/s 96 W/m² -
1777330702 10° C 48% 102.5 hPa 0 mm 0 m/s 159 W/m² -
1777330253 10° C 47% 102.5 hPa 0 mm 0 m/s 202 W/m² -
1777329803 10° C 47% 102.5 hPa 0 mm 0 m/s 179 W/m² -
1777329352 10.56° C 46% 102.5 hPa 0 mm 0 m/s 257 W/m² -
1777328902 11.11° C 45% 102.5 hPa 0 mm 0 m/s 308 W/m² -

* Rain latest hour (hover to see other rain measurements)
** Current wind speed in m/s (hover to see current wind gust speed)